Vorticity
13 11 9 10 10 10 11 9 6 7 9 13 14 8 11 4 4 16 19 10 -1 35 50 27 16 3 0 3 9 12 4 11 11 10 14 26 33 31
8 11 10 10 12 13 11 8 7 8 10 11 9 8 5 10 15 20 10 -0 5 20 24 24 17 18 11 10 8 7 17 13 15 13 11 9 10 15
11 11 13 12 14 12 8 7 8 11 7 5 7 8 11 23 8 7 8 -1 16 11 29 17 21 17 14 8 10 12 13 12 11 12 17 16 17 15
14 13 13 12 11 8 9 9 9 8 4 6 6 13 11 6 15 6 9 11 12 8 11 23 14 11 15 14 12 8 8 8 10 9 7 7 5 8
12 12 11 12 13 13 13 9 6 6 7 11 9 10 10 9 12 9 7 9 14 14 10 11 12 13 12 13 11 9 9 8 9 9 11 11 9 8
10 9 15 20 18 13 11 10 14 14 10 11 10 11 11 10 9 9 8 6 6 6 6 9 11 11 11 11 9 9 9 8 6 6 6 4 5 14
17 9 2 9 14 15 13 9 8 9 11 9 8 9 9 9 9 10 10 9 9 8 8 7 6 5 5 5 6 5 5 5 6 15 25 25 20 13
10 10 5 5 5 5 6 6 7 9 8 8 8 10 9 10 8 9 9 11 10 11 11 10 11 10 11 13 13 17 24 29 23 16 9 8 7 8
5 6 5 6 7 8 8 8 9 9 9 10 10 11 10 9 8 9 10 10 11 11 13 13 13 13 15 19 19 16 11 9 8 8 7 8 8 8
4 7 8 8 8 7 8 8 8 9 10 10 9 8 9 10 10 11 11 11 12 11 13 14 14 13 12 12 9 8 7 7 6 6 7 7 8 8
8 7 8 8 8 8 9 9 9 9 10 10 10 10 11 11 11 11 11 12 11 11 12 12 11 11 11 11 9 9 9 9 9 9 10 10 10 11
7 8 9 10 10 11 9 9 10 10 10 10 11 11 11 11 11 10 10 10 11 12 11 12 11 9 8 8 11 10 8 7 7 7 8 9 10 10
8 9 9 10 10 11 11 11 11 10 9 10 10 11 10 10 10 11 12 12 12 11 11 11 11 10 9 12 10 8 8 10 8 8 9 9 9 9
10 10 10 11 11 11 11 11 11 10 10 10 10 10 10 10 10 11 11 11 11 10 10 11 11 11 12 13 13 11 11 10 11 13 13 11 10 10
9 8 8 9 11 12 11 10 10 10 10 10 9 9 9 9 10 11 11 11 11 10 11 10 10 10 12 12 13 14 13 9 11 11 11 12 13 12
7 5 7 11 11 11 11 11 10 10 9 9 9 9 9 9 10 10 10 10 12 10 10 9 9 10 10 10 11 14 12 13 13 13 10 12 15 14
6 5 8 12 12 12 11 11 10 10 9 9 9 9 9 10 10 10 10 11 12 13 12 9 8 8 9 11 13 15 15 15 12 12 12 11 13 13
6 5 6 9 11 10 10 10 10 10 10 10 10 10 9 10 11 10 10 11 12 12 13 12 12 11 10 11 12 12 15 14 14 14 15 15 15 15
6 6 6 6 10 11 9 10 11 11 11 10 10 9 9 10 11 11 11 12 12 12 12 12 11 9 9 10 14 17 14 13 12 11 10 10 10 12
8 7 6 1 4 12 14 13 12 11 10 10 10 8 8 10 11 12 12 13 13 12 13 12 11 8 8 8 11 19 15 9 7 6 6 7 10 13
9 8 3 4 7 14 18 13 12 10 9 9 8 8 7 8 11 11 12 12 12 12 14 14 11 10 11 11 12 15 15 12 8 10 9 9 11 13
8 9 2 5 9 19 17 15 13 10 8 8 8 7 6 8 10 12 12 12 12 12 12 12 12 13 14 11 11 11 11 11 10 10 10 11 10 14
9 7 4 7 12 15 12 10 10 10 9 10 9 7 7 9 11 12 12 12 12 13 11 11 11 11 11 11 10 10 10 11 13 14 17 19 13 9
Height
3104 3103 3102 3100 3099 3097 3095 3094 3091 3088 3087 3087 3083 3082 3080 3078 3075 3073 3071 3067 3064 3057 3054 3056 3061 3062 3060 3062 3062 3062 3065 3065 3066 3066 3068 3068 3069 3072
3096 3096 3095 3093 3092 3091 3089 3087 3085 3083 3081 3079 3078 3076 3074 3071 3068 3065 3063 3060 3056 3051 3049 3051 3053 3053 3053 3052 3053 3054 3058 3057 3057 3058 3060 3061 3060 3063
3090 3089 3088 3086 3085 3085 3083 3081 3080 3078 3076 3074 3072 3070 3067 3064 3063 3060 3057 3055 3050 3046 3044 3045 3046 3046 3046 3046 3049 3049 3050 3051 3051 3051 3052 3053 3053 3056
3084 3082 3081 3080 3079 3078 3077 3076 3075 3073 3071 3069 3067 3065 3062 3060 3058 3055 3053 3050 3046 3043 3041 3041 3040 3040 3041 3041 3042 3043 3044 3045 3045 3045 3046 3046 3047 3049
3078 3077 3076 3074 3073 3072 3072 3070 3069 3067 3065 3064 3063 3060 3057 3055 3052 3050 3047 3045 3042 3041 3039 3037 3036 3035 3035 3036 3037 3037 3037 3036 3036 3037 3039 3040 3040 3041
3073 3072 3070 3068 3067 3067 3066 3065 3063 3062 3060 3059 3057 3055 3052 3050 3047 3044 3042 3039 3037 3035 3034 3033 3032 3032 3032 3032 3031 3031 3030 3030 3030 3030 3031 3032 3032 3032
3070 3068 3067 3065 3064 3062 3062 3061 3059 3058 3056 3054 3052 3050 3047 3044 3042 3039 3036 3033 3031 3029 3028 3026 3024 3023 3022 3022 3022 3022 3022 3022 3022 3022 3023 3024 3025 3026
3067 3066 3064 3063 3062 3060 3059 3057 3055 3054 3052 3049 3047 3044 3041 3039 3035 3033 3030 3027 3025 3024 3021 3018 3017 3016 3015 3015 3015 3015 3015 3014 3015 3016 3017 3017 3017 3018
3065 3063 3062 3060 3058 3057 3055 3053 3051 3049 3046 3043 3041 3038 3035 3033 3030 3027 3024 3021 3019 3017 3016 3013 3010 3009 3008 3007 3007 3007 3007 3008 3008 3008 3009 3010 3012 3013
3062 3060 3059 3057 3054 3052 3050 3048 3046 3044 3041 3038 3035 3031 3029 3027 3023 3020 3018 3015 3012 3010 3009 3007 3004 3002 3002 3003 3002 3002 3002 3001 3001 3002 3003 3004 3004 3005
3057 3056 3054 3052 3049 3046 3045 3043 3041 3037 3035 3032 3029 3026 3023 3020 3017 3013 3011 3009 3006 3003 3001 3000 2998 2997 2996 2996 2996 2995 2995 2995 2995 2995 2995 2995 2995 2995
3053 3051 3049 3046 3044 3042 3039 3037 3034 3031 3028 3026 3023 3020 3016 3013 3011 3008 3005 3002 2999 2997 2995 2995 2992 2991 2991 2989 2989 2987 2987 2986 2985 2984 2984 2983 2983 2983
3047 3046 3043 3041 3039 3036 3033 3030 3027 3025 3022 3019 3016 3013 3011 3008 3005 3001 2998 2995 2993 2989 2988 2987 2985 2983 2982 2982 2983 2979 2978 2977 2976 2975 2974 2973 2972 2971
3043 3041 3038 3035 3032 3030 3027 3024 3022 3019 3016 3013 3010 3007 3005 3002 2998 2995 2992 2989 2986 2983 2980 2979 2978 2975 2974 2974 2974 2973 2969 2966 2964 2963 2962 2962 2961 2961
3038 3036 3033 3030 3027 3024 3021 3018 3015 3013 3010 3007 3004 3001 2998 2995 2992 2989 2985 2983 2980 2977 2974 2971 2968 2967 2966 2965 2964 2964 2961 2958 2956 2953 2950 2949 2950 2950
3033 3030 3028 3024 3021 3018 3015 3012 3009 3006 3003 3001 2999 2996 2992 2989 2985 2982 2979 2976 2974 2970 2966 2963 2960 2959 2958 2956 2954 2955 2951 2948 2948 2943 2940 2940 2940 2940
3027 3025 3022 3018 3015 3012 3009 3005 3003 3000 2997 2995 2992 2989 2986 2983 2979 2975 2972 2969 2967 2965 2961 2955 2948 2946 2946 2946 2944 2942 2941 2939 2934 2933 2931 2931 2932 2931
3022 3019 3016 3013 3009 3006 3003 2999 2997 2994 2991 2989 2985 2982 2979 2976 2973 2968 2964 2961 2958 2956 2953 2949 2944 2939 2936 2937 2932 2931 2930 2928 2925 2923 2921 2919 2922 2921
3015 3013 3010 3007 3004 3000 2997 2993 2990 2988 2985 2982 2979 2976 2972 2969 2966 2962 2957 2953 2950 2947 2944 2940 2935 2930 2926 2925 2926 2924 2921 2918 2916 2915 2912 2910 2909 2911
3009 3006 3003 3000 2997 2993 2989 2986 2983 2980 2977 2975 2972 2968 2964 2962 2958 2954 2950 2945 2941 2939 2936 2931 2926 2921 2918 2914 2913 2916 2911 2907 2906 2904 2902 2899 2898 2897
3001 2999 2996 2993 2989 2985 2982 2979 2976 2973 2970 2967 2963 2960 2956 2952 2949 2944 2940 2936 2932 2929 2927 2924 2918 2914 2910 2906 2903 2903 2903 2901 2897 2893 2891 2886 2885 2884
2993 2991 2988 2985 2982 2978 2974 2971 2969 2966 2962 2959 2956 2952 2948 2944 2940 2936 2931 2927 2924 2919 2916 2913 2909 2905 2901 2897 2893 2890 2890 2890 2888 2884 2880 2875 2871 2868
2985 2983 2980 2977 2974 2970 2967 2964 2961 2957 2954 2951 2948 2944 2940 2935 2930 2926 2922 2918 2914 2911 2907 2903 2899 2896 2893 2889 2885 2881 2878 2877 2874 2871 2869 2866 2862 2858